EW7481 Weather Reports


Display with metric or nautical units.
time (UTC)temp
F
wind
direction
speed
MPH
gust
MPH
rain 1hr
in
rain 24hr
in
rain mn
in
humidity
%
barometer
mb
20260505021508 68 326 0.0 4.0 0.00 0.00 0.00 35 1005.9
20260505020107 69 6 0.0 8.0 0.00 0.00 0.00 34 1005.9
20260505014508 70 8 0.0 7.0 0.00 0.00 0.00 33 1005.7
20260505013017 70 203 1.0 8.0 0.00 0.00 0.00 32 1005.6
20260505011505 72 299 1.0 5.0 0.00 0.00 0.00 32 1005.6
20260505010006 73 77 0.0 6.0 0.00 0.00 0.00 32 1005.4
20260505004505 73 326 0.0 5.0 0.00 0.00 0.00 31 1005.4
20260505003004 74 108 2.0 6.0 0.00 0.00 0.00 31 1005.4
20260505001504 74 290 1.0 5.0 0.00 0.00 0.00 31 1005.4
20260505000005 74 344 1.0 6.0 0.00 0.00 0.00 31 1005.4
20260504234503 74 328 0.0 4.0 0.00 0.00 0.00 33 1005.4
20260504233001 74 316 2.0 5.0 0.00 0.00 0.00 32 1005.4
20260504231605 75 318 1.0 10.0 0.00 0.00 0.00 31 1005.5
20260504230100 76 134 0.0 7.0 0.00 0.00 0.00 30 1005.4
20260504224600 77 250 0.0 5.0 0.00 0.00 0.00 32 1005.4
20260504223058 77 329 0.0 6.0 0.00 0.00 0.00 29 1005.5
20260504221602 76 175 1.0 5.0 0.00 0.00 0.00 28 1005.5
20260504220054 76 288 0.0 5.0 0.00 0.00 0.00 33 1005.7
20260504214555 77 148 1.0 5.0 0.00 0.00 0.00 29 1005.7
20260504213052 77 322 1.0 5.0 0.00 0.00 0.00 32 1005.9
20260504211552 77 94 0.0 4.0 0.00 0.00 0.00 30 1006.0
20260504210105 76 123 0.0 3.0 0.00 0.00 0.00 28 1006.0
20260504204559 76 162 0.0 4.0 0.00 0.00 0.00 30 1006.0
20260504203049 75 314 0.0 4.0 0.00 0.00 0.00 29 1006.2
20260504201549 76 94 0.0 3.0 0.00 0.00 0.00 32 1006.3
20260504200042 76 322 0.0 3.0 0.00 0.00 0.00 32 1006.3
20260504194600 75 196 1.0 6.0 0.00 0.00 0.00 30 1006.5
20260504193038 74 318 0.0 6.0 0.00 0.00 0.00 35 1006.4
20260504191545 74 204 1.0 6.0 0.00 0.00 0.00 32 1006.7
20260504190043 73 127 0.0 5.0 0.00 0.00 0.00 37 1006.8
20260504184538 72 127 0.0 2.0 0.00 0.00 0.00 34 1006.8
20260504183030 71 82 0.0 4.0 0.00 0.00 0.00 37 1006.9
20260504181525 71 125 0.0 2.0 0.00 0.00 0.00 37 1007.2
20260504180024 70 333 0.0 3.0 0.00 0.00 0.00 40 1007.3
20260504174520 69 119 0.0 5.0 0.00 0.00 0.00 37 1007.4
20260504173020 68 158 1.0 4.0 0.00 0.00 0.00 37 1007.4
20260504171513 67 153 0.0 2.0 0.00 0.00 0.00 42 1007.5
20260504081548 45 72 0.0 0.0 0.00 0.00 0.00 76 1008.1
20260504044533 54 143 0.0 1.0 0.00 0.00 0.00 54 1008.6
20260504043033 55 226 0.0 0.0 0.00 0.00 0.00 52 1008.5
20260504041632 56 226 0.0 0.0 0.00 0.00 0.00 49 1008.4
20260504040034 57 226 0.0 0.0 0.00 0.00 0.00 46 1008.3
20260504034541 59 226 0.0 0.0 0.00 0.00 0.00 41 1008.1
20260504033032 61 226 0.0 0.0 0.00 0.00 0.00 40 1008.0
20260504031530 63 226 0.0 0.0 0.00 0.00 0.00 36 1007.9
20260504030038 65 226 0.0 0.0 0.00 0.00 0.00 34 1007.8
20260504024529 66 226 0.0 0.0 0.00 0.00 0.00 32 1007.9
20260504023028 67 226 0.0 0.0 0.00 0.00 0.00 30 1007.9